TimeEDT,TemperatureF,Dew PointF,Humidity,Sea Level PressureIn,VisibilityMPH,Wind Direction,Wind SpeedMPH,Gust SpeedMPH,PrecipitationIn,Events,Conditions,WindDirDegrees,DateUTC
12:53 AM,61.0,50.0,67,30.25,10.0,Calm,Calm,-,N/A,,Clear,0,2013-03-30 04:53:00
1:53 AM,61.0,51.1,70,30.24,10.0,Calm,Calm,-,N/A,,Clear,0,2013-03-30 05:53:00
2:53 AM,60.1,51.1,72,30.23,10.0,Calm,Calm,-,N/A,,Clear,0,2013-03-30 06:53:00
3:53 AM,59.0,51.1,75,30.22,10.0,NNE,3.5,-,N/A,,Clear,30,2013-03-30 07:53:00
4:53 AM,59.0,51.1,75,30.22,10.0,NNE,3.5,-,N/A,,Clear,20,2013-03-30 08:53:00
5:53 AM,59.0,51.1,75,30.22,10.0,NNE,4.6,-,N/A,,Clear,20,2013-03-30 09:53:00
6:53 AM,55.9,51.1,84,30.23,10.0,Calm,Calm,-,N/A,,Clear,0,2013-03-30 10:53:00
7:53 AM,61.0,53.1,75,30.25,10.0,Calm,Calm,-,N/A,,Partly Cloudy,0,2013-03-30 11:53:00
8:53 AM,68.0,53.1,59,30.27,10.0,ENE,5.8,-,N/A,,Clear,70,2013-03-30 12:53:00
9:53 AM,73.0,50.0,44,30.27,10.0,East,12.7,-,N/A,,Partly Cloudy,90,2013-03-30 13:53:00
10:53 AM,73.9,50.0,43,30.27,10.0,SE,8.1,17.3,N/A,,Partly Cloudy,130,2013-03-30 14:53:00
11:53 AM,75.9,48.9,38,30.27,10.0,ESE,10.4,19.6,N/A,,Scattered Clouds,120,2013-03-30 15:53:00
12:53 PM,75.9,44.1,32,30.26,10.0,NE,9.2,-,N/A,,Partly Cloudy,50,2013-03-30 16:53:00
1:53 PM,75.0,48.0,38,30.23,10.0,East,11.5,17.3,N/A,,Clear,100,2013-03-30 17:53:00
2:53 PM,75.9,48.9,38,30.21,10.0,ESE,10.4,18.4,N/A,,Clear,110,2013-03-30 18:53:00
3:53 PM,75.0,51.1,43,30.19,10.0,SSE,9.2,16.1,N/A,,Clear,150,2013-03-30 19:53:00
4:53 PM,73.9,51.1,45,30.18,10.0,SE,10.4,18.4,N/A,,Scattered Clouds,140,2013-03-30 20:53:00
5:53 PM,73.0,51.1,46,30.18,10.0,ESE,12.7,-,N/A,,Clear,120,2013-03-30 21:53:00
6:53 PM,71.1,51.1,49,30.18,10.0,ESE,10.4,-,N/A,,Clear,110,2013-03-30 22:53:00
7:53 PM,68.0,52.0,56,30.19,10.0,ESE,8.1,-,N/A,,Clear,110,2013-03-30 23:53:00
8:53 PM,66.9,53.1,61,30.20,10.0,ESE,6.9,-,N/A,,Clear,110,2013-03-31 00:53:00
9:53 PM,66.0,52.0,60,30.21,10.0,ESE,4.6,-,N/A,,Clear,110,2013-03-31 01:53:00
10:53 PM,64.9,53.1,65,30.22,10.0,ESE,4.6,-,N/A,,Clear,110,2013-03-31 02:53:00
11:53 PM,64.9,53.1,65,30.22,10.0,ESE,5.8,-,N/A,,Clear,120,2013-03-31 03:53:00